[[{"header":{"parameterUnit":"m.s-1","parameterCategory":1,"la1":30.2991,"la2":30.254,"lo1":-89.0895,"lo2":-89.0444,"dy":0.0017,"dx":0.0017,"nx":28,"ny":28,"refTime":"2025-11-30T09:00:00:Z","depth":0,"parameterNumber":2,"parameterNumberName":"U-component_of_WINDS"},"data":[0,0,0,0,0,0,0,0,0,0,0,0,0,0,0,0,0,0,0,0,0,0,0,0,0,0,0,0,0,0,0,0,0,0,0,0,0,0,0,0,0,0,0,0,0,0,0,0,0,0,0,0,0,0,0,0,0,0,-0.4615,-0.4616,0,-0.4681,-0.4682,-0.4683,-0.4663,-0.4661,-0.466,-0.4658,-0.4731,-0.4734,-0.4737,0,0,0,0,0,0,0,0,0,0,0,0,0,-0.4477,-0.4479,-0.4615,-0.4616,-0.4617,-0.4681,-0.4682,-0.4683,-0.4663,-0.4661,-0.4659,-0.4658,-0.473,-0.4733,-0.4737,0,0,0,0,0,0,0,0,0,0,0,0,0,-0.4539,-0.448,-0.4615,-0.4614,-0.4615,-0.4681,-0.4682,-0.4683,-0.4663,-0.4661,-0.4659,-0.4657,-0.4728,-0.4733,-0.4738,-0.481,0,0,-0.4752,-0.4755,0,0,0,0,0,0,0,0,-0.4536,-0.4544,-0.4614,-0.4615,-0.4615,-0.4661,-0.466,-0.4726,-0.4664,-0.4645,-0.4658,-0.4656,-0.471,-0.4716,-0.4733,-0.4813,-0.4816,-0.4753,-0.4756,-0.4758,-0.4759,0,0,0,0,0,0,0,-0.4532,-0.4542,-0.4641,-0.4615,-0.4616,-0.4612,-0.4619,-0.4672,-0.4688,-0.4646,-0.4645,-0.4653,-0.471,-0.4728,-0.4734,-0.4817,-0.4753,-0.4757,-0.476,-0.4762,-0.4962,-0.4964,0,0,0,0,0,0,-0.4526,-0.4538,-0.4639,-0.4643,-0.4569,-0.4617,-0.4624,-0.4649,-0.4688,-0.4692,-0.4655,-0.4652,-0.4721,-0.4729,-0.4737,-0.4826,-0.4758,-0.4762,-0.4765,-0.4959,-0.4962,-0.4965,0,0,0,0,0,0,-0.4523,-0.4535,-0.4637,-0.459,-0.4603,-0.4621,-0.4649,-0.4651,-0.467,-0.4694,-0.4697,-0.4671,-0.472,-0.473,-0.4792,-0.4828,-0.4765,-0.4769,-0.4956,-0.496,-0.4963,-0.5003,0,0,0,0,0,0,-0.4519,-0.4534,-0.4561,-0.4591,-0.4606,-0.4689,-0.4651,-0.4654,-0.4678,-0.4675,-0.471,-0.4713,-0.4719,-0.4785,-0.4797,-0.4833,-0.4773,-0.4953,-0.4958,-0.4962,-0.4998,-0.5007,-0.5015,0,0,0,0,0,-0.4514,-0.457,-0.4562,-0.4574,-0.4639,-0.4691,-0.47,-0.4704,-0.4681,-0.4708,-0.4724,-0.4712,-0.4821,-0.4791,-0.4804,-0.4843,-0.4951,-0.4957,-0.4962,-0.4995,-0.5005,-0.5014,0,0,0,0,0,0,-0.4545,-0.4574,-0.4566,-0.4632,-0.4659,-0.4688,-0.4723,-0.4715,-0.475,-0.4746,-0.475,-0.4758,-0.4822,-0.4838,-0.4804,-0.4916,-0.4883,-0.4891,-0.4903,-0.4914,-0.4922,-0.4918,-0.4777,0,0,0,0,0,-0.4559,-0.4597,-0.4621,-0.4678,-0.4691,-0.4705,-0.4728,-0.4728,-0.4757,-0.4769,-0.4789,-0.4819,-0.486,-0.4887,-0.4926,-0.4999,-0.5008,-0.5033,-0.5041,-0.5047,-0.5056,-0.5098,-0.511,-0.4983,-0.4982,-0.4982,0,0,-0.4589,-0.461,-0.4634,-0.4684,-0.4705,-0.4747,-0.4715,-0.476,-0.4792,-0.4776,-0.4836,-0.4852,-0.4886,-0.4954,-0.4985,-0.497,-0.5092,-0.5054,-0.5059,-0.5064,-0.5105,-0.5117,-0.5128,-0.4986,-0.4986,-0.4985,0,0,-0.4666,-0.4684,-0.4734,-0.4756,-0.4788,-0.4796,-0.4808,-0.4838,-0.4847,-0.4907,-0.4897,-0.4935,-0.5005,-0.503,-0.5052,-0.5139,-0.5131,-0.5151,-0.5195,-0.5236,-0.5247,-0.5256,-0.5289,-0.5301,-0.5158,-0.5159,-0.5159,0,-0.4701,-0.4762,-0.4762,-0.4808,-0.4832,-0.4817,-0.487,-0.4891,-0.4934,-0.4952,-0.4933,-0.5021,-0.5043,-0.5118,-0.5139,-0.5156,-0.5172,-0.5149,-0.5245,-0.5254,-0.5262,-0.5295,-0.5307,-0.5161,-0.5161,-0.516,-0.516,0,-0.4804,-0.4846,-0.4883,-0.4925,-0.4952,-0.5001,-0.501,-0.5038,-0.5035,-0.5046,-0.5108,-0.5133,-0.5178,-0.5195,-0.5194,-0.5271,-0.526,-0.5243,-0.5211,-0.5277,-0.5308,-0.532,-0.5165,-0.5164,-0.5163,-0.5162,0,0,-0.4904,-0.4944,-0.4958,-0.4977,-0.5011,-0.5045,-0.5094,-0.5136,-0.5161,-0.5191,-0.5234,-0.5294,-0.5278,-0.5303,-0.5304,-0.534,-0.541,-0.5318,-0.5319,-0.5337,-0.55,-0.5515,-0.5529,-0.5403,-0.5406,-0.5407,-0.5498,0,-0.4987,-0.5071,-0.5073,-0.5152,-0.5192,-0.5179,-0.5222,-0.5249,-0.526,-0.5298,-0.531,-0.5354,-0.5328,-0.5343,-0.5378,-0.5394,-0.5443,-0.5387,-0.5447,-0.5449,-0.5442,-0.5545,-0.5561,-0.5645,-0.551,-0.5512,-0.5513,0,-0.5094,-0.5127,-0.521,-0.5239,-0.5256,-0.5294,-0.5334,-0.5369,-0.5399,-0.5405,-0.5433,-0.5429,-0.5481,-0.5445,-0.5518,-0.548,-0.5504,-0.5516,-0.5519,-0.5527,-0.5487,-0.5559,-0.5672,-0.5686,-0.5531,-0.553,-0.5528,0,-0.5163,-0.5228,-0.5286,-0.5302,-0.5337,-0.5365,-0.5381,-0.5408,-0.5434,-0.5469,-0.5486,-0.5527,-0.555,-0.5582,-0.559,-0.5562,-0.5665,-0.5628,-0.5674,-0.5674,-0.5699,-0.5698,-0.582,-0.5709,-0.5708,-0.5708,-0.5708,0,-0.5257,-0.5309,-0.5318,-0.5354,-0.5412,-0.5413,-0.5471,-0.5485,-0.551,-0.5551,-0.5541,-0.5579,-0.5586,-0.5626,-0.5632,-0.5694,-0.5703,-0.5712,-0.5714,-0.5715,-0.5714,-0.5733,-0.5729,-0.5711,-0.5711,-0.571,-0.5709,0,-0.5345,-0.5352,-0.5416,-0.5442,-0.545,-0.5493,-0.5517,-0.5552,-0.5562,-0.5613,-0.5625,-0.5641,-0.5688,-0.5698,-0.5754,-0.5758,-0.5833,-0.5827,-0.5822,-0.5823,-0.5869,-0.5866,-0.6011,-0.6031,-0.5903,-0.5904,-0.5905,0,-0.5406,-0.5446,-0.5476,-0.5502,-0.5519,-0.556,-0.5586,-0.5588,-0.5616,-0.5654,-0.5686,-0.5731,-0.5768,-0.5844,-0.5862,-0.5906,-0.5903,-0.595,-0.591,-0.591,-0.5908,-0.5907,-0.5912,-0.596,-0.5961,-0.5962,-0.5963,0,-0.5515,-0.5516,-0.5553,-0.5592,-0.5623,-0.5654,-0.5683,-0.5705,-0.5712,-0.5744,-0.5791,-0.5819,-0.5876,-0.5923,-0.5966,-0.5984,-0.5977,-0.5975,-0.5989,-0.5992,-0.5989,-0.5995,-0.5847,-0.5973,-0.5972,-0.5971,-0.5971,-0.597,-0.5593,-0.5629,-0.5656,-0.5698,-0.572,-0.5748,-0.5783,-0.5797,-0.5835,-0.5881,-0.588,-0.5933,-0.5963,-0.602,-0.6041,-0.6084,-0.6069,-0.6088,-0.6093,-0.6099,-0.6104,-0.5979,-0.6091,-0.6091,-0.609,-0.609,-0.609,0,-0.5704,-0.5721,-0.5759,-0.58,-0.5834,-0.582,-0.5852,-0.5882,-0.5928,-0.5956,-0.5992,-0.6047,-0.6092,-0.6113,-0.6158,-0.6188,-0.6186,-0.62,-0.62,-0.6205,-0.6113,-0.6099,-0.6202,-0.6202,-0.6202,-0.6202,-0.6202,-0.6202,-0.5766,-0.5826,-0.5831,-0.5902,-0.5919,-0.5969,-0.5989,-0.6015,-0.6038,-0.61,-0.6137,-0.6149,-0.6175,-0.6222,-0.6263,-0.6268,-0.6287,-0.6304,-0.6308,-0.6222,-0.6211,-0.6201,-0.6187,-0.6307,-0.6307,-0.6397,-0.6398,-0.6398]},{"header":{"parameterUnit":"m.s-1","parameterCategory":1,"la1":30.2991,"la2":30.254,"lo1":-89.0895,"lo2":-89.0444,"dy":0.0017,"dx":0.0017,"nx":28,"ny":28,"refTime":"2025-11-30T09:00:00:Z","depth":0,"parameterNumber":3,"parameterNumberName":"V-component_of_WINDS"},"data":[0,0,0,0,0,0,0,0,0,0,0,0,0,0,0,0,0,0,0,0,0,0,0,0,0,0,0,0,0,0,0,0,0,0,0,0,0,0,0,0,0,0,0,0,0,0,0,0,0,0,0,0,0,0,0,0,0,0,-5.1961,-5.1962,0,-5.1975,-5.1975,-5.1975,-5.1902,-5.19,-5.1898,-5.1896,-5.1908,-5.191,-5.1912,0,0,0,0,0,0,0,0,0,0,0,0,0,-5.187,-5.1872,-5.1961,-5.1962,-5.1962,-5.1975,-5.1975,-5.1975,-5.1902,-5.19,-5.1897,-5.1895,-5.1907,-5.191,-5.1912,0,0,0,0,0,0,0,0,0,0,0,0,0,-5.1899,-5.1873,-5.1961,-5.1927,-5.1924,-5.1975,-5.1975,-5.1975,-5.1903,-5.19,-5.1896,-5.1893,-5.1906,-5.1909,-5.1913,-5.1997,0,0,-5.1923,-5.1925,0,0,0,0,0,0,0,0,-5.1898,-5.1903,-5.1932,-5.1929,-5.1926,-5.1933,-5.1947,-5.1983,-5.1904,-5.1911,-5.1896,-5.1892,-5.1919,-5.1921,-5.193,-5.1998,-5.1998,-5.1924,-5.1926,-5.1927,-5.1928,0,0,0,0,0,0,0,-5.1896,-5.1902,-5.1967,-5.1932,-5.1929,-5.191,-5.1911,-5.1954,-5.1932,-5.191,-5.1905,-5.1907,-5.1917,-5.1927,-5.193,-5.1998,-5.1924,-5.1927,-5.1929,-5.193,-5.2134,-5.2137,0,0,0,0,0,0,-5.1898,-5.19,-5.1966,-5.1967,-5.1904,-5.1914,-5.1915,-5.1934,-5.1932,-5.1928,-5.191,-5.1904,-5.1923,-5.1926,-5.193,-5.2028,-5.1927,-5.193,-5.1932,-5.2131,-5.2135,-5.2138,0,0,0,0,0,0,-5.1897,-5.1905,-5.1966,-5.1932,-5.1939,-5.1919,-5.1941,-5.1936,-5.1947,-5.1932,-5.1927,-5.1925,-5.1921,-5.1925,-5.1981,-5.2027,-5.1932,-5.1935,-5.2127,-5.2132,-5.2137,-5.2224,0,0,0,0,0,0,-5.1894,-5.1905,-5.1937,-5.1934,-5.1941,-5.2017,-5.1944,-5.1939,-5.1953,-5.1945,-5.1945,-5.1941,-5.1918,-5.1976,-5.1984,-5.203,-5.1938,-5.2122,-5.2129,-5.2135,-5.2217,-5.2232,-5.2244,0,0,0,0,0,-5.1891,-5.1961,-5.1939,-5.1948,-5.1981,-5.202,-5.2024,-5.1997,-5.1957,-5.1989,-5.1979,-5.1941,-5.2021,-5.1982,-5.1991,-5.2039,-5.2119,-5.2127,-5.2134,-5.2211,-5.2229,-5.2244,0,0,0,0,0,0,-5.1971,-5.196,-5.1936,-5.2007,-5.2015,-5.2007,-5.2047,-5.2016,-5.2035,-5.2027,-5.1992,-5.1992,-5.2054,-5.2052,-5.2009,-5.2119,-5.2063,-5.2073,-5.2118,-5.2135,-5.2148,-5.2147,-5.1941,0,0,0,0,0,-5.1997,-5.203,-5.2018,-5.2082,-5.2087,-5.2067,-5.2083,-5.2061,-5.2068,-5.2071,-5.2065,-5.2072,-5.2099,-5.2117,-5.214,-5.2217,-5.2215,-5.2253,-5.2267,-5.2278,-5.2287,-5.2326,-5.2343,-5.2163,-5.2163,-5.2163,0,0,-5.205,-5.2048,-5.2071,-5.2098,-5.2102,-5.2136,-5.207,-5.2109,-5.2134,-5.2076,-5.2128,-5.2124,-5.213,-5.2196,-5.2225,-5.2196,-5.2336,-5.2288,-5.2297,-5.2299,-5.2335,-5.2352,-5.2368,-5.2168,-5.2167,-5.2167,0,0,-5.2165,-5.2168,-5.222,-5.2225,-5.2232,-5.2217,-5.223,-5.2227,-5.2223,-5.2274,-5.2231,-5.226,-5.2307,-5.2312,-5.2321,-5.2438,-5.2404,-5.2447,-5.2517,-5.2556,-5.257,-5.2582,-5.2623,-5.2638,-5.2455,-5.2456,-5.2456,0,-5.223,-5.2281,-5.2251,-5.2293,-5.2306,-5.2255,-5.2308,-5.2314,-5.2328,-5.2337,-5.2305,-5.2362,-5.2363,-5.2429,-5.2457,-5.2467,-5.2479,-5.2446,-5.257,-5.2582,-5.2593,-5.2632,-5.2647,-5.2461,-5.246,-5.246,-5.2459,0,-5.2361,-5.2397,-5.2438,-5.2453,-5.247,-5.2518,-5.2494,-5.2515,-5.2492,-5.248,-5.2533,-5.2532,-5.2554,-5.2568,-5.2546,-5.2631,-5.2613,-5.2576,-5.2519,-5.2616,-5.2652,-5.2666,-5.2468,-5.2466,-5.2465,-5.2463,0,0,-5.2526,-5.2524,-5.2539,-5.2545,-5.2548,-5.2575,-5.2619,-5.2641,-5.2659,-5.267,-5.2706,-5.2747,-5.2713,-5.2723,-5.2701,-5.2735,-5.2826,-5.2693,-5.2693,-5.2718,-5.2919,-5.2946,-5.2964,-5.2803,-5.2806,-5.2808,-5.2918,0,-5.2638,-5.2714,-5.2688,-5.2766,-5.2798,-5.275,-5.2788,-5.2794,-5.2785,-5.281,-5.2799,-5.2828,-5.2781,-5.2787,-5.2819,-5.2808,-5.2866,-5.28,-5.2836,-5.2837,-5.2835,-5.2982,-5.3011,-5.3115,-5.2932,-5.2934,-5.2936,0,-5.2779,-5.2796,-5.2876,-5.2873,-5.2886,-5.2921,-5.2938,-5.2963,-5.2968,-5.2959,-5.2971,-5.2941,-5.2983,-5.2927,-5.2984,-5.294,-5.2953,-5.295,-5.2953,-5.2955,-5.2892,-5.2987,-5.3148,-5.3163,-5.2958,-5.2956,-5.2954,0,-5.2891,-5.2933,-5.2987,-5.2993,-5.2991,-5.3017,-5.3017,-5.3019,-5.3033,-5.3049,-5.3057,-5.3078,-5.3088,-5.3104,-5.308,-5.3041,-5.3141,-5.3083,-5.3134,-5.3135,-5.3157,-5.3156,-5.3321,-5.3167,-5.3166,-5.3166,-5.3166,0,-5.3018,-5.3069,-5.3037,-5.307,-5.3125,-5.3094,-5.315,-5.3144,-5.3146,-5.3177,-5.3137,-5.3166,-5.3133,-5.3159,-5.3141,-5.3191,-5.3196,-5.3189,-5.3183,-5.3192,-5.3193,-5.32,-5.3192,-5.317,-5.3169,-5.3168,-5.3168,0,-5.3152,-5.3133,-5.3188,-5.3181,-5.318,-5.3222,-5.3215,-5.3245,-5.3232,-5.3271,-5.3279,-5.3259,-5.3288,-5.3265,-5.3293,-5.3281,-5.3347,-5.3331,-5.3345,-5.3341,-5.3393,-5.3388,-5.3568,-5.3589,-5.3422,-5.3424,-5.3425,0,-5.3235,-5.3273,-5.327,-5.3287,-5.329,-5.3319,-5.3334,-5.3304,-5.3321,-5.3329,-5.3358,-5.3383,-5.3401,-5.3449,-5.3437,-5.3458,-5.3442,-5.3504,-5.3445,-5.3452,-5.3442,-5.344,-5.3443,-5.3515,-5.3517,-5.3519,-5.352,0,-5.3383,-5.3371,-5.3394,-5.3413,-5.3432,-5.3446,-5.3456,-5.3473,-5.3443,-5.3463,-5.3492,-5.3506,-5.3535,-5.356,-5.3576,-5.3576,-5.3543,-5.3539,-5.3552,-5.3561,-5.3567,-5.3564,-5.3377,-5.3535,-5.3533,-5.3532,-5.3531,-5.3531,-5.3493,-5.3524,-5.3527,-5.3553,-5.3558,-5.3569,-5.3596,-5.3587,-5.361,-5.3631,-5.3612,-5.3646,-5.3649,-5.3668,-5.3672,-5.3698,-5.3672,-5.3691,-5.3696,-5.3701,-5.3708,-5.3564,-5.3701,-5.37,-5.37,-5.3699,-5.3699,0,-5.3638,-5.3637,-5.3662,-5.3678,-5.3698,-5.3666,-5.3676,-5.3695,-5.3726,-5.3731,-5.375,-5.3783,-5.3807,-5.3796,-5.3817,-5.384,-5.3825,-5.3846,-5.3844,-5.3844,-5.373,-5.3716,-5.3858,-5.3858,-5.3858,-5.3858,-5.3858,-5.3858,-5.3716,-5.3767,-5.3756,-5.3808,-5.3806,-5.384,-5.3848,-5.3857,-5.3861,-5.39,-5.3919,-5.3912,-5.3911,-5.3932,-5.3952,-5.3948,-5.3958,-5.3984,-5.3975,-5.3868,-5.3852,-5.3838,-5.3825,-5.3986,-5.3987,-5.4087,-5.4088,-5.4089]}]]